,,,PA_Meas_PMT16A,,PR_Meas_QMR101_102,,RH_Meas_QMH101,,SR_Meas_QMS101,,TA_Meas_QMH101,,GenWind,,GenWind,
date,time,status,PA,status,PR,status,RH,status,SR,status,TA,status,DirAvg,status,SpdAvg,
2009-05-15, 00:00:04,VALID,1007.34,VALID,0,VALID,86.4837,VALID,0.105969,VALID,25.6041,VALID,65,VALID,0.419141,
2009-05-15, 00:01:04,VALID,1007.32,VALID,0,VALID,86.476,VALID,0.105969,VALID,25.5827,VALID,65,VALID,0.371875,
2009-05-15, 00:02:04,VALID,1007.36,VALID,0,VALID,86.5447,VALID,0,VALID,25.5846,VALID,75,VALID,0.529688,
2009-05-15, 00:03:04,VALID,1007.34,VALID,0,VALID,86.5218,VALID,0,VALID,25.5651,VALID,73,VALID,0.535937,
2009-05-15, 00:04:04,VALID,1007.34,VALID,0,VALID,86.5599,VALID,0,VALID,25.5632,VALID,68,VALID,0,
2009-05-15, 00:05:04,VALID,1007.35,VALID,0,VALID,86.5676,VALID,0,VALID,25.5846,VALID,68,VALID,0.159766,
2009-05-15, 00:06:04,VALID,1007.36,VALID,0,VALID,86.5981,VALID,0.105969,VALID,25.5632,VALID,69,VALID,0.164844,
2009-05-15, 00:07:04,VALID,1007.33,VALID,0,VALID,86.6286,VALID,0.105969,VALID,25.5437,VALID,75,VALID,0.129688,
2009-05-15, 00:08:04,VALID,1007.33,VALID,0,VALID,86.6591,VALID,0,VALID,25.5437,VALID,90,VALID,0.705469,
2009-05-15, 00:09:04,VALID,1007.33,VALID,0,VALID,86.6057,VALID,0,VALID,25.5651,VALID,85,VALID,0.211719,
2009-05-15, 00:10:04,VALID,1007.31,VALID,0,VALID,86.5752,VALID,0.105969,VALID,25.5651,VALID,27,VALID,0.720703,
2009-05-15, 00:11:04,VALID,1007.32,VALID,0,VALID,86.5218,VALID,0,VALID,25.5242,VALID,70,VALID,0.553516,
2009-05-15, 00:12:04,VALID,1007.33,VALID,0,VALID,86.4989,VALID,0,VALID,25.5437,VALID,84,VALID,0.550781,
2009-05-15, 00:13:04,VALID,1007.32,VALID,0,VALID,86.5065,VALID,0,VALID,25.5437,VALID,95,VALID,0,
2009-05-15, 00:14:04,VALID,1007.3,VALID,0,VALID,86.5065,VALID,0.105969,VALID,25.5437,VALID,69,VALID,0.897266,
2009-05-15, 00:15:04,VALID,1007.3,VALID,0,VALID,86.4989,VALID,0,VALID,25.5437,VALID,68,VALID,0.267578,
2009-05-15, 00:16:04,VALID,1007.28,VALID,0,VALID,86.4303,VALID,0.105969,VALID,25.5437,VALID,76,VALID,0.732031,
2009-05-15, 00:17:04,VALID,1007.24,VALID,0,VALID,86.3617,VALID,0,VALID,25.5437,VALID,63,VALID,0.849219,
2009-05-15, 00:18:04,VALID,1007.21,VALID,0,VALID,86.2778,VALID,0.105969,VALID,25.5632,VALID,75,VALID,0.675,
2009-05-15, 00:19:04,VALID,1007.22,VALID,0,VALID,86.2549,VALID,0,VALID,25.5632,VALID,66,VALID,0.623047,
2009-05-15, 00:20:04,VALID,1007.2,VALID,0,VALID,86.1558,VALID,0,VALID,25.5846,VALID,45,VALID,0.541406,
2009-05-15, 00:21:04,VALID,1007.22,VALID,0,VALID,86.0871,VALID,0,VALID,25.5846,VALID,44,VALID,0.35625,
2009-05-15, 00:22:04,VALID,1007.2,VALID,0,VALID,86.0948,VALID,0,VALID,25.5827,VALID,51,VALID,0.460156,
2009-05-15, 00:23:04,VALID,1007.22,VALID,0,VALID,86.0566,VALID,0,VALID,25.6041,VALID,53,VALID,0.522266,
2009-05-15, 00:24:04,VALID,1007.22,VALID,0,VALID,86.0414,VALID,0,VALID,25.5827,VALID,105,VALID,0.212109,
2009-05-15, 00:25:04,VALID,1007.18,VALID,0,VALID,86.1329,VALID,0,VALID,25.6022,VALID,92,VALID,0.449219,
2009-05-15, 00:26:04,VALID,1007.17,VALID,0,VALID,86.1024,VALID,0,VALID,25.5827,VALID,87,VALID,0.396875,
2009-05-15, 00:27:04,VALID,1007.17,VALID,0,VALID,86.1405,VALID,0,VALID,25.6022,VALID,98,VALID,0.5875,
2009-05-15, 00:28:04,VALID,1007.12,VALID,0,VALID,86.2473,VALID,0.105969,VALID,25.6022,VALID,101,VALID,0.719141,
2009-05-15, 00:29:04,VALID,1007.16,VALID,0,VALID,86.2473,VALID,0.105969,VALID,25.6022,VALID,70,VALID,0.273828,
2009-05-15, 00:30:04,VALID,1007.13,VALID,0,VALID,86.2701,VALID,0.105969,VALID,25.6022,VALID,70,VALID,0.246875,
2009-05-15, 00:31:04,VALID,1007.1,VALID,0,VALID,86.2854,VALID,0,VALID,25.6022,VALID,79,VALID,0.567578,
2009-05-15, 00:32:04,VALID,1007.12,VALID,0,VALID,86.232,VALID,0,VALID,25.5827,VALID,78,VALID,0.553516,
2009-05-15, 00:33:04,VALID,1007.13,VALID,0,VALID,86.293,VALID,0,VALID,25.6022,VALID,71,VALID,0.476563,
2009-05-15, 00:34:04,VALID,1007.14,VALID,0,VALID,86.2778,VALID,0,VALID,25.5827,VALID,71,VALID,0.281641,
2009-05-15, 00:35:04,VALID,1007.17,VALID,0,VALID,86.3083,VALID,0.105969,VALID,25.5827,VALID,89,VALID,0.720703,
2009-05-15, 00:36:04,VALID,1007.15,VALID,0,VALID,86.2854,VALID,0.105969,VALID,25.5632,VALID,86,VALID,0.222656,
2009-05-15, 00:37:04,VALID,1007.17,VALID,0,VALID,86.3693,VALID,0.105969,VALID,25.5827,VALID,94,VALID,0.328516,
2009-05-15, 00:38:04,VALID,1007.17,VALID,0,VALID,86.415,VALID,0.105969,VALID,25.5827,VALID,74,VALID,0.732813,
2009-05-15, 00:39:04,VALID,1007.21,VALID,0,VALID,86.4455,VALID,0.105969,VALID,25.5827,VALID,88,VALID,0.741016,
2009-05-15, 00:40:04,VALID,1007.19,VALID,0,VALID,86.4608,VALID,0.105969,VALID,25.5632,VALID,79,VALID,0.644922,
2009-05-15, 00:41:04,VALID,1007.21,VALID,0,VALID,86.4608,VALID,0.105969,VALID,25.5437,VALID,56,VALID,0.764063,
2009-05-15, 00:42:04,VALID,1007.18,VALID,0,VALID,86.5218,VALID,0.105969,VALID,25.5437,VALID,77,VALID,0.575,
2009-05-15, 00:43:04,VALID,1007.17,VALID,0,VALID,86.5523,VALID,0.105969,VALID,25.5242,VALID,57,VALID,0.550391,
2009-05-15, 00:44:04,VALID,1007.19,VALID,0,VALID,86.5752,VALID,0,VALID,25.5437,VALID,66,VALID,0.327344,
2009-05-15, 00:45:04,VALID,1007.16,VALID,0,VALID,86.6133,VALID,0,VALID,25.5242,VALID,54,VALID,0.512109,
2009-05-15, 00:46:04,VALID,1007.2,VALID,0,VALID,86.6591,VALID,0.105969,VALID,25.5242,VALID,54,VALID,0.249609,
2009-05-15, 00:47:04,VALID,1007.16,VALID,0,VALID,86.6972,VALID,0,VALID,25.5047,VALID,54,VALID,0.385547,
2009-05-15, 00:48:04,VALID,1007.13,VALID,0,VALID,86.7277,VALID,0,VALID,25.5261,VALID,81,VALID,0.562109,
2009-05-15, 00:49:04,VALID,1007.1,VALID,0,VALID,86.7582,VALID,0,VALID,25.4871,VALID,83,VALID,0.458594,
2009-05-15, 00:50:04,VALID,1007.06,VALID,0,VALID,86.7811,VALID,0,VALID,25.4852,VALID,80,VALID,0.457422,
2009-05-15, 00:51:04,VALID,1007.04,VALID,0,VALID,86.8268,VALID,0.105969,VALID,25.4657,VALID,78,VALID,0.398438,
2009-05-15, 00:52:04,VALID,1007.02,VALID,0,VALID,86.8726,VALID,0,VALID,25.4657,VALID,77,VALID,0.165234,
2009-05-15, 00:53:04,VALID,1006.97,VALID,0,VALID,86.9031,VALID,0.105969,VALID,25.4462,VALID,75,VALID,0.201953,
2009-05-15, 00:54:04,VALID,1006.96,VALID,0,VALID,86.9107,VALID,0,VALID,25.4462,VALID,66,VALID,0.221484,
2009-05-15, 00:55:04,VALID,1006.9,VALID,0,VALID,86.9488,VALID,0,VALID,25.4462,VALID,57,VALID,0.382031,
2009-05-15, 00:56:04,VALID,1006.91,VALID,0,VALID,86.9946,VALID,0.105969,VALID,25.4462,VALID,57,VALID,0.350781,
2009-05-15, 00:57:04,VALID,1006.87,VALID,0,VALID,87.0251,VALID,0,VALID,25.4267,VALID,41,VALID,0.358984,
2009-05-15, 00:58:04,VALID,1006.83,VALID,0,VALID,87.0556,VALID,0,VALID,25.4287,VALID,41,VALID,0.283984,
2009-05-15, 00:59:04,VALID,1006.82,VALID,0,VALID,87.109,VALID,0.105969,VALID,25.4072,VALID,41,VALID,0.358203,
2009-05-15, 01:00:04,VALID,1006.79,VALID,0,VALID,87.2157,VALID,0,VALID,25.4092,VALID,50,VALID,0.267969,
2009-05-15, 01:01:04,VALID,1006.81,VALID,0,VALID,87.2615,VALID,0,VALID,25.3897,VALID,51,VALID,0.287891,
2009-05-15, 01:02:04,VALID,1006.79,VALID,0,VALID,87.3149,VALID,0,VALID,25.3897,VALID,51,VALID,0.190234,
2009-05-15, 01:03:04,VALID,1006.8,VALID,0,VALID,87.3683,VALID,0,VALID,25.3488,VALID,51,VALID,0.200781,
2009-05-15, 01:04:04,VALID,1006.8,VALID,0,VALID,87.414,VALID,0,VALID,25.3507,VALID,51,VALID,0.155078,
2009-05-15, 01:05:04,VALID,1006.77,VALID,0,VALID,87.4521,VALID,0,VALID,25.3488,VALID,51,VALID,0.269531,
2009-05-15, 01:06:04,VALID,1006.77,VALID,0,VALID,87.5284,VALID,0,VALID,25.3507,VALID,51,VALID,0.272266,
2009-05-15, 01:07:04,VALID,1006.79,VALID,0,VALID,87.5742,VALID,0,VALID,25.3293,VALID,51,VALID,0.0140625,
2009-05-15, 01:08:04,VALID,1006.8,VALID,0,VALID,87.6352,VALID,0,VALID,25.3098,VALID,51,VALID,0,
2009-05-15, 01:09:04,VALID,1006.74,VALID,0,VALID,87.658,VALID,0,VALID,25.3117,VALID,51,VALID,0.131641,
2009-05-15, 01:10:04,VALID,1006.76,VALID,0,VALID,87.6809,VALID,0,VALID,25.3312,VALID,51,VALID,0,
2009-05-15, 01:11:04,VALID,1006.74,VALID,0,VALID,87.719,VALID,0,VALID,25.3098,VALID,51,VALID,0,
2009-05-15, 01:12:04,VALID,1006.74,VALID,0,VALID,87.719,VALID,0,VALID,25.3117,VALID,51,VALID,0,
2009-05-15, 01:13:04,VALID,1006.75,VALID,0,VALID,87.7495,VALID,0.105969,VALID,25.3117,VALID,51,VALID,0,
2009-05-15, 01:14:04,VALID,1006.75,VALID,0,VALID,87.78,VALID,0,VALID,25.3098,VALID,51,VALID,0,
2009-05-15, 01:15:04,VALID,1006.75,VALID,0,VALID,87.7953,VALID,0,VALID,25.2903,VALID,51,VALID,0,
2009-05-15, 01:16:04,VALID,1006.75,VALID,0,VALID,87.7953,VALID,0,VALID,25.2903,VALID,51,VALID,0,
2009-05-15, 01:17:04,VALID,1006.75,VALID,0,VALID,87.8258,VALID,0,VALID,25.3117,VALID,51,VALID,0,
2009-05-15, 01:18:04,VALID,1006.76,VALID,0,VALID,87.8334,VALID,0,VALID,25.2708,VALID,52,VALID,0,
2009-05-15, 01:19:04,VALID,1006.75,VALID,0,VALID,87.8563,VALID,0,VALID,25.2708,VALID,80,VALID,0,
2009-05-15, 01:20:04,VALID,1006.74,VALID,0,VALID,87.8716,VALID,0,VALID,25.2903,VALID,80,VALID,0,
2009-05-15, 01:21:04,VALID,1006.74,VALID,0,VALID,87.8716,VALID,0,VALID,25.2513,VALID,98,VALID,0,
2009-05-15, 01:22:04,VALID,1006.75,VALID,0,VALID,87.8868,VALID,0,VALID,25.2513,VALID,98,VALID,0,
2009-05-15, 01:23:04,VALID,1006.75,VALID,0,VALID,87.8716,VALID,0,VALID,25.2513,VALID,98,VALID,0,
2009-05-15, 01:24:04,VALID,1006.75,VALID,0,VALID,87.8792,VALID,0,VALID,25.2513,VALID,98,VALID,0,
2009-05-15, 01:25:04,VALID,1006.75,VALID,0,VALID,87.8716,VALID,0,VALID,25.2513,VALID,98,VALID,0,
2009-05-15, 01:26:04,VALID,1006.78,VALID,0,VALID,87.8639,VALID,0,VALID,25.2513,VALID,127,VALID,0,
2009-05-15, 01:27:04,VALID,1006.77,VALID,0,VALID,87.8334,VALID,0,VALID,25.2532,VALID,164,VALID,0.426562,
2009-05-15, 01:28:04,VALID,1006.8,VALID,0,VALID,87.8563,VALID,0,VALID,25.2123,VALID,158,VALID,0.605078,
2009-05-15, 01:29:04,VALID,1006.8,VALID,0,VALID,87.8868,VALID,0,VALID,25.1928,VALID,162,VALID,0.662109,
2009-05-15, 01:30:04,VALID,1006.81,VALID,0,VALID,87.9631,VALID,0,VALID,25.2142,VALID,144,VALID,0.392578,
2009-05-15, 01:31:04,VALID,1006.83,VALID,0,VALID,88.0241,VALID,0,VALID,25.1928,VALID,144,VALID,0.278906,
2009-05-15, 01:32:04,VALID,1006.86,VALID,0,VALID,88.0775,VALID,0,VALID,25.1733,VALID,144,VALID,0.398438,
2009-05-15, 01:33:04,VALID,1006.84,VALID,0,VALID,88.1308,VALID,0,VALID,25.1733,VALID,144,VALID,0.317969,
2009-05-15, 01:34:04,VALID,1006.84,VALID,0,VALID,88.1766,VALID,0,VALID,25.1733,VALID,144,VALID,0.025,
2009-05-15, 01:35:04,VALID,1006.84,VALID,0,VALID,88.2376,VALID,0,VALID,25.1947,VALID,144,VALID,0.379687,
2009-05-15, 01:36:04,VALID,1006.83,VALID,0,VALID,88.2147,VALID,0,VALID,25.1928,VALID,144,VALID,0.33125,
2009-05-15, 01:37:04,VALID,1006.81,VALID,0,VALID,88.23,VALID,0,VALID,25.1538,VALID,144,VALID,0.455469,
2009-05-15, 01:38:04,VALID,1006.81,VALID,0,VALID,88.2681,VALID,0,VALID,25.1752,VALID,156,VALID,0.449219,
2009-05-15, 01:39:04,VALID,1006.78,VALID,0,VALID,88.291,VALID,0,VALID,25.1538,VALID,156,VALID,0.369141,
2009-05-15, 01:40:04,VALID,1006.77,VALID,0,VALID,88.2986,VALID,0,VALID,25.1557,VALID,156,VALID,0.433984,
2009-05-15, 01:41:04,VALID,1006.76,VALID,0,VALID,88.3367,VALID,0,VALID,25.1538,VALID,156,VALID,0.394531,
2009-05-15, 01:42:04,VALID,1006.73,VALID,0,VALID,88.3672,VALID,0,VALID,25.1538,VALID,157,VALID,0.497266,
2009-05-15, 01:43:04,VALID,1006.68,VALID,0,VALID,88.3901,VALID,0,VALID,25.1538,VALID,158,VALID,0.15,
2009-05-15, 01:44:04,VALID,1006.65,VALID,0,VALID,88.4282,VALID,0,VALID,25.1538,VALID,158,VALID,0.155469,
2009-05-15, 01:45:04,VALID,1006.63,VALID,0,VALID,88.4511,VALID,0,VALID,25.1538,VALID,158,VALID,0.111328,
2009-05-15, 01:46:04,VALID,1006.59,VALID,0,VALID,88.4435,VALID,0,VALID,25.1947,VALID,158,VALID,0,
2009-05-15, 01:47:04,VALID,1006.57,VALID,0,VALID,88.4435,VALID,0,VALID,25.1752,VALID,158,VALID,0,
2009-05-15, 01:48:04,VALID,1006.53,VALID,0,VALID,88.4435,VALID,0.105969,VALID,25.1733,VALID,158,VALID,0,
2009-05-15, 01:49:04,VALID,1006.52,VALID,0,VALID,88.4511,VALID,0,VALID,25.1733,VALID,157,VALID,0,
2009-05-15, 01:50:04,VALID,1006.52,VALID,0,VALID,88.4282,VALID,0.105969,VALID,25.1733,VALID,157,VALID,0.0910156,
2009-05-15, 01:51:04,VALID,1006.52,VALID,0,VALID,88.4282,VALID,0.105969,VALID,25.1538,VALID,147,VALID,0.317578,
2009-05-15, 01:52:04,VALID,1006.52,VALID,0,VALID,88.4282,VALID,0.105969,VALID,25.1538,VALID,52,VALID,0.522266,
2009-05-15, 01:53:04,VALID,1006.5,VALID,0,VALID,88.413,VALID,0,VALID,25.1343,VALID,52,VALID,0.417969,
2009-05-15, 01:54:04,VALID,1006.49,VALID,0,VALID,88.4054,VALID,0,VALID,25.1148,VALID,52,VALID,0.0847656,
2009-05-15, 01:55:04,VALID,1006.49,VALID,0,VALID,88.413,VALID,0,VALID,25.1148,VALID,52,VALID,0,
2009-05-15, 01:56:04,VALID,1006.46,VALID,0,VALID,88.413,VALID,0,VALID,25.1362,VALID,53,VALID,0.455469,
2009-05-15, 01:57:04,VALID,1006.46,VALID,0,VALID,88.4054,VALID,0.105969,VALID,25.1148,VALID,53,VALID,0.204297,
2009-05-15, 01:58:04,VALID,1006.47,VALID,0,VALID,88.3672,VALID,0.105969,VALID,25.1343,VALID,53,VALID,0.107422,
2009-05-15, 01:59:04,VALID,1006.45,VALID,0,VALID,88.3596,VALID,0,VALID,25.1538,VALID,53,VALID,0.238672,
2009-05-15, 02:00:04,VALID,1006.45,VALID,0,VALID,88.3444,VALID,0,VALID,25.1343,VALID,53,VALID,0.110937,
2009-05-15, 02:01:04,VALID,1006.45,VALID,0,VALID,88.291,VALID,0,VALID,25.1343,VALID,53,VALID,0,
2009-05-15, 02:02:04,VALID,1006.47,VALID,0,VALID,88.23,VALID,0,VALID,25.1557,VALID,53,VALID,0,
2009-05-15, 02:03:04,VALID,1006.44,VALID,0,VALID,88.1766,VALID,0.105969,VALID,25.1343,VALID,53,VALID,0,
2009-05-15, 02:04:04,VALID,1006.47,VALID,0,VALID,88.1995,VALID,0,VALID,25.1538,VALID,53,VALID,0,
2009-05-15, 02:05:04,VALID,1006.41,VALID,0,VALID,88.1918,VALID,0.105969,VALID,25.1538,VALID,53,VALID,0,
2009-05-15, 02:06:04,VALID,1006.39,VALID,0,VALID,88.1842,VALID,0,VALID,25.1557,VALID,53,VALID,0,
2009-05-15, 02:07:04,VALID,1006.42,VALID,0,VALID,88.1842,VALID,0.105969,VALID,25.1343,VALID,53,VALID,0,
2009-05-15, 02:08:04,VALID,1006.41,VALID,0,VALID,88.1766,VALID,0.105969,VALID,25.1343,VALID,53,VALID,0,
2009-05-15, 02:09:04,VALID,1006.41,VALID,0,VALID,88.1918,VALID,0,VALID,25.1343,VALID,53,VALID,0.132813,
2009-05-15, 02:10:04,VALID,1006.42,VALID,0,VALID,88.1995,VALID,0,VALID,25.1343,VALID,53,VALID,0,
2009-05-15, 02:11:04,VALID,1006.41,VALID,0,VALID,88.2147,VALID,0.105969,VALID,25.1343,VALID,53,VALID,0,
2009-05-15, 02:12:04,VALID,1006.43,VALID,0,VALID,88.1995,VALID,0.105969,VALID,25.1343,VALID,53,VALID,0,
2009-05-15, 02:13:04,VALID,1006.39,VALID,0,VALID,88.1842,VALID,0,VALID,25.0934,VALID,53,VALID,0,
2009-05-15, 02:14:04,VALID,1006.42,VALID,0,VALID,88.1918,VALID,0.105969,VALID,25.0954,VALID,53,VALID,0,
2009-05-15, 02:15:04,VALID,1006.41,VALID,0,VALID,88.1918,VALID,0.105969,VALID,25.0759,VALID,53,VALID,0,
2009-05-15, 02:16:04,VALID,1006.41,VALID,0,VALID,88.23,VALID,0,VALID,25.0759,VALID,53,VALID,0,
2009-05-15, 02:17:04,VALID,1006.43,VALID,0,VALID,88.2833,VALID,0,VALID,25.0759,VALID,53,VALID,0,
2009-05-15, 02:18:04,VALID,1006.4,VALID,0,VALID,88.2986,VALID,0.105969,VALID,25.0564,VALID,54,VALID,0.155469,
2009-05-15, 02:19:04,VALID,1006.39,VALID,0,VALID,88.3215,VALID,0,VALID,25.0564,VALID,61,VALID,0.364844,
2009-05-15, 02:20:04,VALID,1006.43,VALID,0,VALID,88.3215,VALID,0.105969,VALID,25.0759,VALID,80,VALID,0.384766,
2009-05-15, 02:21:04,VALID,1006.43,VALID,0,VALID,88.3062,VALID,0.105969,VALID,25.0759,VALID,80,VALID,0.523047,
2009-05-15, 02:22:04,VALID,1006.4,VALID,0,VALID,88.2681,VALID,0,VALID,25.0954,VALID,82,VALID,0.521094,
2009-05-15, 02:23:04,VALID,1006.46,VALID,0,VALID,88.2376,VALID,0.105969,VALID,25.0954,VALID,97,VALID,0.494531,
2009-05-15, 02:24:04,VALID,1006.41,VALID,0,VALID,88.1995,VALID,0.105969,VALID,25.0954,VALID,103,VALID,0.647656,
2009-05-15, 02:25:04,VALID,1006.41,VALID,0,VALID,88.108,VALID,0,VALID,25.1148,VALID,113,VALID,0.813672,
2009-05-15, 02:26:04,VALID,1006.4,VALID,0,VALID,88.0317,VALID,0.105969,VALID,25.1343,VALID,110,VALID,0.331641,
2009-05-15, 02:27:04,VALID,1006.44,VALID,0,VALID,87.9783,VALID,0.105969,VALID,25.1538,VALID,105,VALID,0.344141,
2009-05-15, 02:28:04,VALID,1006.43,VALID,0,VALID,87.8944,VALID,0,VALID,25.1557,VALID,105,VALID,0.421094,
2009-05-15, 02:29:04,VALID,1006.4,VALID,0,VALID,87.8563,VALID,0.105969,VALID,25.1538,VALID,105,VALID,0.411719,
2009-05-15, 02:30:04,VALID,1006.4,VALID,0,VALID,87.6962,VALID,0.105969,VALID,25.1538,VALID,87,VALID,0.828516,
2009-05-15, 02:31:04,VALID,1006.39,VALID,0,VALID,87.597,VALID,0,VALID,25.1538,VALID,84,VALID,0.569141,
2009-05-15, 02:32:04,VALID,1006.37,VALID,0,VALID,87.5208,VALID,0,VALID,25.1538,VALID,81,VALID,1.03477,
2009-05-15, 02:33:04,VALID,1006.35,VALID,0,VALID,87.3911,VALID,0.105969,VALID,25.1538,VALID,102,VALID,1.19883,
2009-05-15, 02:34:04,VALID,1006.35,VALID,0,VALID,87.3225,VALID,0.105969,VALID,25.1538,VALID,103,VALID,0.487891,
2009-05-15, 02:35:04,VALID,1006.33,VALID,0,VALID,87.292,VALID,0.105969,VALID,25.1538,VALID,103,VALID,0.298438,
2009-05-15, 02:36:04,VALID,1006.31,VALID,0,VALID,87.3149,VALID,0.105969,VALID,25.1343,VALID,111,VALID,0.770312,
2009-05-15, 02:37:04,VALID,1006.28,VALID,0,VALID,87.2234,VALID,0,VALID,25.1343,VALID,106,VALID,0.748828,
2009-05-15, 02:38:04,VALID,1006.28,VALID,0,VALID,87.1852,VALID,0.105969,VALID,25.1343,VALID,118,VALID,0.302734,
2009-05-15, 02:39:04,VALID,1006.28,VALID,0,VALID,87.2005,VALID,0,VALID,25.1148,VALID,169,VALID,0.510547,
2009-05-15, 02:40:04,VALID,1006.29,VALID,0,VALID,87.231,VALID,0.105969,VALID,25.0954,VALID,161,VALID,0.413672,
2009-05-15, 02:41:04,VALID,1006.27,VALID,0,VALID,87.1929,VALID,0,VALID,25.0759,VALID,135,VALID,0.505859,
2009-05-15, 02:42:04,VALID,1006.26,VALID,0,VALID,87.048,VALID,0.105969,VALID,25.0954,VALID,127,VALID,0.430078,
2009-05-15, 02:43:04,VALID,1006.25,VALID,0,VALID,87.0404,VALID,0.105969,VALID,25.0954,VALID,127,VALID,0.0949219,
2009-05-15, 02:44:04,VALID,1006.23,VALID,0,VALID,87.0404,VALID,0,VALID,25.0954,VALID,127,VALID,0,
2009-05-15, 02:45:04,VALID,1006.21,VALID,0,VALID,87.0404,VALID,0,VALID,25.0759,VALID,127,VALID,0,
2009-05-15, 02:46:04,VALID,1006.2,VALID,0,VALID,87.0175,VALID,0,VALID,25.0759,VALID,127,VALID,0,
2009-05-15, 02:47:04,VALID,1006.19,VALID,0,VALID,87.0098,VALID,0,VALID,25.0973,VALID,127,VALID,0,
2009-05-15, 02:48:04,VALID,1006.21,VALID,0,VALID,87.0404,VALID,0,VALID,25.0973,VALID,127,VALID,0,
2009-05-15, 02:49:04,VALID,1006.19,VALID,0,VALID,87.0404,VALID,0,VALID,25.0759,VALID,127,VALID,0,
2009-05-15, 02:50:04,VALID,1006.21,VALID,0,VALID,87.0251,VALID,0,VALID,25.0759,VALID,127,VALID,0,
2009-05-15, 02:51:04,VALID,1006.23,VALID,0,VALID,87.0785,VALID,0,VALID,25.0759,VALID,127,VALID,0,
2009-05-15, 02:52:04,VALID,1006.25,VALID,0,VALID,87.1166,VALID,0,VALID,25.0759,VALID,127,VALID,0,
2009-05-15, 02:53:04,VALID,1006.24,VALID,0,VALID,87.109,VALID,0,VALID,25.0759,VALID,127,VALID,0,
2009-05-15, 02:54:04,VALID,1006.24,VALID,0,VALID,87.1319,VALID,0,VALID,25.0564,VALID,127,VALID,0,
2009-05-15, 02:55:04,VALID,1006.24,VALID,0,VALID,87.1471,VALID,0,VALID,25.0564,VALID,127,VALID,0,
2009-05-15, 02:56:04,VALID,1006.23,VALID,0,VALID,87.2462,VALID,0,VALID,25.0369,VALID,127,VALID,0.202734,
2009-05-15, 02:57:04,VALID,1006.23,VALID,0,VALID,87.353,VALID,0,VALID,25.0174,VALID,127,VALID,0.25,
2009-05-15, 02:58:04,VALID,1006.21,VALID,0,VALID,87.4674,VALID,0,VALID,24.9979,VALID,127,VALID,0.145703,
2009-05-15, 02:59:04,VALID,1006.21,VALID,0,VALID,87.5513,VALID,0,VALID,24.9784,VALID,124,VALID,0.162891,
2009-05-15, 03:00:04,VALID,1006.21,VALID,0,VALID,87.6275,VALID,0,VALID,24.9589,VALID,124,VALID,0.0121094,
2009-05-15, 03:01:04,VALID,1006.18,VALID,0,VALID,87.719,VALID,0,VALID,24.9589,VALID,124,VALID,0,
2009-05-15, 03:02:04,VALID,1006.19,VALID,0,VALID,87.7877,VALID,0,VALID,24.9608,VALID,124,VALID,0,
2009-05-15, 03:03:04,VALID,1006.18,VALID,0,VALID,87.8334,VALID,0,VALID,24.9004,VALID,124,VALID,0,
2009-05-15, 03:04:04,VALID,1006.16,VALID,0,VALID,87.8792,VALID,0,VALID,24.9218,VALID,124,VALID,0,
2009-05-15, 03:05:04,VALID,1006.15,VALID,0,VALID,87.9631,VALID,0.105969,VALID,24.9199,VALID,124,VALID,0,
2009-05-15, 03:06:04,VALID,1006.14,VALID,0,VALID,87.9936,VALID,0,VALID,24.9218,VALID,124,VALID,0,
2009-05-15, 03:07:04,VALID,1006.16,VALID,0,VALID,88.0088,VALID,0,VALID,24.9004,VALID,124,VALID,0,
2009-05-15, 03:08:04,VALID,1006.12,VALID,0,VALID,88.0088,VALID,0,VALID,24.8809,VALID,124,VALID,0,
2009-05-15, 03:09:04,VALID,1006.12,VALID,0,VALID,88.0698,VALID,0,VALID,24.9218,VALID,124,VALID,0,
2009-05-15, 03:10:04,VALID,1006.1,VALID,0,VALID,88.108,VALID,0,VALID,24.9023,VALID,124,VALID,0,
2009-05-15, 03:11:04,VALID,1006.06,VALID,0,VALID,88.1308,VALID,0,VALID,24.8828,VALID,124,VALID,0,
2009-05-15, 03:12:04,VALID,1006.05,VALID,0,VALID,88.1461,VALID,0,VALID,24.8615,VALID,124,VALID,0,
2009-05-15, 03:13:04,VALID,1006.05,VALID,0,VALID,88.1918,VALID,0,VALID,24.8633,VALID,124,VALID,0,
2009-05-15, 03:14:04,VALID,1006.04,VALID,0,VALID,88.2071,VALID,0,VALID,24.8225,VALID,124,VALID,0,
2009-05-15, 03:15:04,VALID,1006.07,VALID,0,VALID,88.2605,VALID,0,VALID,24.842,VALID,124,VALID,0.549219,
2009-05-15, 03:16:04,VALID,1006.04,VALID,0,VALID,88.2528,VALID,0,VALID,24.8244,VALID,137,VALID,0.896484,
2009-05-15, 03:17:04,VALID,1006.06,VALID,0,VALID,88.2757,VALID,0,VALID,24.8633,VALID,142,VALID,0.996484,
2009-05-15, 03:18:04,VALID,1006.05,VALID,0,VALID,88.3444,VALID,0,VALID,24.842,VALID,134,VALID,1.2082,
2009-05-15, 03:19:04,VALID,1006.03,VALID,0,VALID,88.3367,VALID,0,VALID,24.8633,VALID,151,VALID,0.627344,
2009-05-15, 03:20:04,VALID,1006.02,VALID,0,VALID,88.352,VALID,0,VALID,24.8633,VALID,130,VALID,0.664063,
2009-05-15, 03:21:04,VALID,1006.02,VALID,0,VALID,88.3672,VALID,0,VALID,24.8615,VALID,126,VALID,1.12109,
2009-05-15, 03:22:04,VALID,1006.04,VALID,0,VALID,88.4664,VALID,0,VALID,24.8828,VALID,117,VALID,0.615625,
2009-05-15, 03:23:04,VALID,1006.05,VALID,0,VALID,88.4969,VALID,0,VALID,24.9023,VALID,116,VALID,0.410156,
2009-05-15, 03:24:04,VALID,1006.05,VALID,0,VALID,88.5197,VALID,0,VALID,24.8828,VALID,116,VALID,0.546875,
2009-05-15, 03:25:04,VALID,1006.04,VALID,0,VALID,88.5121,VALID,0,VALID,24.8809,VALID,96,VALID,0.891797,
2009-05-15, 03:26:04,VALID,1006.06,VALID,0,VALID,88.5579,VALID,0,VALID,24.8828,VALID,64,VALID,0.653516,
2009-05-15, 03:27:04,VALID,1006.07,VALID,0,VALID,88.5807,VALID,0,VALID,24.9004,VALID,70,VALID,0.708203,
2009-05-15, 03:28:04,VALID,1006.09,VALID,0,VALID,88.535,VALID,0,VALID,24.8809,VALID,56,VALID,0.695703,
2009-05-15, 03:29:04,VALID,1006.09,VALID,0,VALID,88.5121,VALID,0,VALID,24.8809,VALID,36,VALID,0.642578,
2009-05-15, 03:30:04,VALID,1006.12,VALID,0,VALID,88.4435,VALID,0,VALID,24.8828,VALID,67,VALID,0.695313,
2009-05-15, 03:31:04,VALID,1006.16,VALID,0,VALID,88.3367,VALID,0,VALID,24.8828,VALID,81,VALID,1.03359,
2009-05-15, 03:32:04,VALID,1006.18,VALID,0,VALID,88.23,VALID,0,VALID,24.8828,VALID,86,VALID,0.803906,
2009-05-15, 03:33:04,VALID,1006.17,VALID,0,VALID,88.1537,VALID,0,VALID,24.842,VALID,89,VALID,0.970312,
2009-05-15, 03:34:04,VALID,1006.19,VALID,0,VALID,88.047,VALID,0,VALID,24.842,VALID,68,VALID,1.02109,
2009-05-15, 03:35:04,VALID,1006.22,VALID,0,VALID,87.9783,VALID,0,VALID,24.8633,VALID,74,VALID,0.909375,
2009-05-15, 03:36:04,VALID,1006.22,VALID,0,VALID,87.9021,VALID,0,VALID,24.8633,VALID,72,VALID,0.901172,
2009-05-15, 03:37:04,VALID,1006.24,VALID,0,VALID,87.8944,VALID,0.105969,VALID,24.8225,VALID,73,VALID,0.771094,
2009-05-15, 03:38:04,VALID,1006.3,VALID,0,VALID,87.9173,VALID,0,VALID,24.803,VALID,67,VALID,0.605859,
2009-05-15, 03:39:04,VALID,1006.32,VALID,0,VALID,87.9249,VALID,0,VALID,24.803,VALID,76,VALID,0.477344,
2009-05-15, 03:40:04,VALID,1006.36,VALID,0,VALID,87.9326,VALID,0,VALID,24.8049,VALID,54,VALID,0.447656,
2009-05-15, 03:41:04,VALID,1006.38,VALID,0,VALID,87.9783,VALID,0,VALID,24.7659,VALID,54,VALID,0,
2009-05-15, 03:42:04,VALID,1006.41,VALID,0,VALID,87.9936,VALID,0,VALID,24.7659,VALID,54,VALID,0,
2009-05-15, 03:43:04,VALID,1006.43,VALID,0,VALID,88.0393,VALID,0,VALID,24.7445,VALID,54,VALID,0,
2009-05-15, 03:44:04,VALID,1006.42,VALID,0,VALID,88.0546,VALID,0,VALID,24.7445,VALID,75,VALID,0.533203,
2009-05-15, 03:45:04,VALID,1006.45,VALID,0,VALID,88.0927,VALID,0.105969,VALID,24.7445,VALID,84,VALID,0.429297,
2009-05-15, 03:46:04,VALID,1006.43,VALID,0,VALID,88.1537,VALID,0.105969,VALID,24.7445,VALID,85,VALID,0.2375,